| time (UTC) | temp F | wind direction | speed MPH | gust MPH | rain 1hr in | rain 24hr in | rain mn in | humidity % | barometer mb |
| 20260901231705 | 77 | 132 | 2.0 | 3.0 | 0.00 | 0.15 | 0.00 | 92 | 989.9 |
| 20260901231204 | 77 | 235 | 1.0 | 3.0 | 0.00 | 0.15 | 0.00 | 92 | 990.0 |
| 20260901230704 | 77 | 176 | 2.0 | 3.0 | 0.00 | 0.15 | 0.00 | 92 | 990.0 |
| 20260901224704 | 79 | 173 | 2.0 | 5.0 | 0.00 | 0.15 | 0.00 | 90 | 990.0 |
| 20260901224204 | 79 | 248 | 1.0 | 5.0 | 0.00 | 0.15 | 0.00 | 90 | 990.0 |
| 20260901223704 | 79 | 160 | 2.0 | 5.0 | 0.00 | 0.15 | 0.00 | 89 | 990.0 |
| 20260901223206 | 80 | 174 | 2.0 | 5.0 | 0.00 | 0.15 | 0.00 | 89 | 989.9 |
| 20260901221204 | 80 | 196 | 2.0 | 5.0 | 0.00 | 0.15 | 0.00 | 89 | 990.0 |
| 20260901220704 | 79 | 138 | 3.0 | 5.0 | 0.00 | 0.15 | 0.00 | 89 | 990.0 |
| 20260901220205 | 80 | 146 | 3.0 | 5.0 | 0.00 | 0.15 | 0.00 | 89 | 990.1 |
| 20260901214203 | 79 | 105 | 2.0 | 6.0 | 0.00 | 0.15 | 0.00 | 89 | 990.3 |
| 20260901213203 | 79 | 62 | 3.0 | 5.0 | 0.00 | 0.15 | 0.00 | 90 | 990.3 |
| 20260901211704 | 79 | 110 | 3.0 | 5.0 | 0.00 | 0.15 | 0.00 | 89 | 990.4 |
| 20260901211205 | 79 | 101 | 1.0 | 5.0 | 0.00 | 0.15 | 0.00 | 90 | 990.4 |
| 20260901210703 | 79 | 67 | 3.0 | 5.0 | 0.00 | 0.15 | 0.00 | 90 | 990.5 |
| 20260901210204 | 78 | 110 | 1.0 | 3.0 | 0.00 | 0.15 | 0.00 | 90 | 990.5 |
| 20260901204204 | 78 | 88 | 2.0 | 5.0 | 0.00 | 0.15 | 0.00 | 91 | 990.5 |
| 20260901203703 | 78 | 80 | 2.0 | 6.0 | 0.00 | 0.15 | 0.00 | 91 | 990.4 |
| 20260901201205 | 80 | 83 | 3.0 | 7.0 | 0.00 | 0.15 | 0.00 | 89 | 990.5 |
| 20260901200703 | 80 | 107 | 2.0 | 5.0 | 0.00 | 0.15 | 0.00 | 90 | 990.7 |
| 20260901200204 | 81 | 81 | 3.0 | 3.0 | 0.00 | 0.15 | 0.00 | 88 | 990.6 |
| 20260901194703 | 81 | 112 | 2.0 | 5.0 | 0.00 | 0.15 | 0.00 | 88 | 990.7 |
| 20260901193705 | 80 | 105 | 1.0 | 6.0 | 0.00 | 0.15 | 0.00 | 87 | 990.9 |
| 20260901193205 | 80 | 113 | 2.0 | 6.0 | 0.00 | 0.15 | 0.00 | 88 | 990.9 |
| 20260901191204 | 81 | 225 | 2.0 | 3.0 | 0.00 | 0.15 | 0.00 | 87 | 990.8 |
| 20260901190703 | 81 | 96 | 3.0 | 3.0 | 0.00 | 0.15 | 0.00 | 88 | 990.8 |
| 20260901190204 | 80 | 61 | 1.0 | 3.0 | 0.00 | 0.15 | 0.00 | 87 | 990.7 |
| 20260901184705 | 79 | 148 | 1.0 | 6.0 | 0.00 | 0.15 | 0.00 | 90 | 990.9 |
| 20260901184204 | 80 | 80 | 3.0 | 6.0 | 0.00 | 0.15 | 0.00 | 89 | 990.9 |
| 20260901183704 | 80 | 105 | 2.0 | 6.0 | 0.00 | 0.15 | 0.00 | 87 | 990.8 |
| 20260901183204 | 80 | 136 | 1.0 | 6.0 | 0.00 | 0.15 | 0.00 | 88 | 990.9 |
| 20260901181704 | 81 | 59 | 2.0 | 5.0 | 0.00 | 0.15 | 0.00 | 85 | 990.9 |
| 20260901180704 | 82 | 78 | 2.0 | 5.0 | 0.00 | 0.15 | 0.00 | 85 | 990.9 |
| 20260901173703 | 81 | 65 | 2.0 | 5.0 | 0.00 | 0.15 | 0.00 | 84 | 991.0 |
| 20260901173205 | 81 | 123 | 3.0 | 7.0 | 0.00 | 0.15 | 0.00 | 85 | 991.1 |
| 20260901171703 | 82 | 99 | 2.0 | 6.0 | 0.00 | 0.15 | 0.00 | 84 | 991.2 |
| 20260901171204 | 82 | 124 | 2.0 | 6.0 | 0.00 | 0.15 | 0.00 | 84 | 991.3 |
| 20260901170204 | 83 | 88 | 1.0 | 3.0 | 0.00 | 0.15 | 0.00 | 82 | 991.4 |
| 20260901164704 | 83 | 85 | 2.0 | 3.0 | 0.00 | 0.15 | 0.00 | 82 | 991.6 |
| 20260901164204 | 83 | 158 | 2.0 | 3.0 | 0.00 | 0.15 | 0.00 | 81 | 991.7 |
| 20260901163703 | 84 | 83 | 2.0 | 5.0 | 0.00 | 0.15 | 0.00 | 81 | 991.7 |
| 20260901161704 | 82 | 120 | 2.0 | 3.0 | 0.00 | 0.15 | 0.00 | 83 | 991.8 |
| 20260901160703 | 81 | 207 | 1.0 | 5.0 | 0.00 | 0.15 | 0.00 | 84 | 991.7 |
| 20260901160204 | 81 | 62 | 2.0 | 5.0 | 0.00 | 0.15 | 0.00 | 84 | 991.8 |
| 20260901154703 | 82 | 100 | 1.0 | 3.0 | 0.00 | 0.15 | 0.00 | 82 | 991.7 |
| 20260901154204 | 82 | 184 | 1.0 | 5.0 | 0.00 | 0.15 | 0.00 | 82 | 991.7 |
| 20260901153703 | 82 | 73 | 1.0 | 5.0 | 0.00 | 0.15 | 0.00 | 84 | 991.7 |
| 20260901153204 | 82 | 90 | 1.0 | 5.0 | 0.00 | 0.15 | 0.00 | 82 | 991.6 |
| 20260901151703 | 82 | 92 | 1.0 | 5.0 | 0.00 | 0.15 | 0.00 | 82 | 991.6 |
| 20260901151205 | 81 | 66 | 2.0 | 3.0 | 0.00 | 0.15 | 0.00 | 84 | 991.6 |
| 20260901150703 | 81 | 43 | 1.0 | 5.0 | 0.00 | 0.15 | 0.00 | 86 | 991.6 |
| 20260901150205 | 80 | 329 | 2.0 | 5.0 | 0.00 | 0.15 | 0.00 | 87 | 991.6 |
| 20260901144703 | 80 | 64 | 2.0 | 5.0 | 0.00 | 0.15 | 0.00 | 88 | 991.5 |
| 20260901144203 | 79 | 313 | 2.0 | 5.0 | 0.00 | 0.15 | 0.00 | 90 | 991.5 |
| 20260901143704 | 79 | 14 | 1.0 | 5.0 | 0.00 | 0.15 | 0.00 | 89 | 991.5 |
| 20260901143203 | 79 | 19 | 2.0 | 3.0 | 0.00 | 0.15 | 0.00 | 88 | 991.5 |
| 20260901141204 | 78 | 84 | 2.0 | 6.0 | 0.00 | 0.15 | 0.00 | 90 | 991.4 |
| 20260901140703 | 78 | 80 | 3.0 | 3.0 | 0.00 | 0.15 | 0.00 | 89 | 991.5 |
| 20260901134704 | 79 | 2 | 1.0 | 3.0 | 0.00 | 0.15 | 0.00 | 90 | 991.5 |
| 20260901134203 | 79 | 346 | 2.0 | 3.0 | 0.00 | 0.15 | 0.00 | 89 | 991.4 |
| 20260901133704 | 79 | 0 | 1.0 | 3.0 | 0.00 | 0.15 | 0.00 | 89 | 991.4 |
| 20260901131704 | 77 | 294 | 1.0 | 3.0 | 0.00 | 0.15 | 0.00 | 92 | 991.5 |
| 20260901130704 | 76 | 275 | 2.0 | 3.0 | 0.00 | 0.15 | 0.00 | 93 | 991.6 |
| 20260901130205 | 76 | 287 | 2.0 | 3.0 | 0.00 | 0.15 | 0.00 | 93 | 991.6 |
| 20260901124705 | 75 | 299 | 2.0 | 3.0 | 0.00 | 0.15 | 0.00 | 93 | 991.4 |
| 20260901123703 | 74 | 292 | 2.0 | 3.0 | 0.00 | 0.15 | 0.00 | 94 | 991.3 |
| 20260901121704 | 72 | 77 | 0.0 | 0.0 | 0.00 | 0.15 | 0.00 | 96 | 991.0 |
| 20260901120705 | 71 | 77 | 0.0 | 0.0 | 0.00 | 0.15 | 0.00 | 96 | 991.0 |
| 20260901114703 | 70 | 77 | 0.0 | 1.0 | 0.00 | 0.16 | 0.00 | 96 | 990.7 |
| 20260901113704 | 70 | 31 | 0.0 | 0.0 | 0.00 | 0.16 | 0.00 | 95 | 990.5 |
| 20260901113204 | 70 | 31 | 0.0 | 0.0 | 0.00 | 0.16 | 0.00 | 95 | 990.6 |
| 20260901111204 | 71 | 31 | 0.0 | 0.0 | 0.00 | 0.17 | 0.00 | 95 | 990.4 |
| 20260901110704 | 72 | 31 | 0.0 | 0.0 | 0.00 | 0.17 | 0.00 | 95 | 990.4 |
| 20260901104704 | 73 | 31 | 0.0 | 2.0 | 0.00 | 0.17 | 0.00 | 95 | 990.1 |
| 20260901104205 | 73 | 14 | 2.0 | 2.0 | 0.00 | 0.19 | 0.00 | 95 | 990.0 |
| 20260901103203 | 73 | 299 | 2.0 | 3.0 | 0.00 | 0.25 | 0.00 | 96 | 990.1 |
| 20260901101703 | 72 | 298 | 2.0 | 3.0 | 0.00 | 0.32 | 0.00 | 96 | 990.2 |
| 20260901101204 | 72 | 281 | 1.0 | 2.0 | 0.00 | 0.32 | 0.00 | 95 | 990.2 |
| 20260901100705 | 72 | 269 | 0.0 | 0.0 | 0.00 | 0.33 | 0.00 | 95 | 990.2 |
| 20260901100204 | 73 | 269 | 0.0 | 2.0 | 0.00 | 0.33 | 0.00 | 96 | 990.2 |
| 20260901094704 | 72 | 277 | 1.0 | 2.0 | 0.00 | 0.33 | 0.00 | 96 | 990.3 |
| 20260901094203 | 72 | 277 | 1.0 | 2.0 | 0.00 | 0.33 | 0.00 | 96 | 990.3 |
| 20260901093704 | 72 | 280 | 2.0 | 2.0 | 0.00 | 0.33 | 0.00 | 97 | 990.3 |
| 20260901093204 | 72 | 260 | 0.0 | 2.0 | 0.00 | 0.33 | 0.00 | 97 | 990.3 |
| 20260901091704 | 71 | 280 | 2.0 | 2.0 | 0.00 | 0.33 | 0.00 | 97 | 990.3 |
| 20260901091205 | 71 | 86 | 0.0 | 0.0 | 0.00 | 0.33 | 0.00 | 96 | 990.2 |
| 20260901090705 | 71 | 86 | 0.0 | 0.0 | 0.00 | 0.33 | 0.00 | 96 | 990.1 |
| 20260901090205 | 71 | 86 | 0.0 | 0.0 | 0.00 | 0.33 | 0.00 | 96 | 990.1 |
| 20260901084704 | 70 | 86 | 0.0 | 0.0 | 0.00 | 0.33 | 0.00 | 96 | 990.0 |
| 20260901084205 | 70 | 86 | 0.0 | 0.0 | 0.00 | 0.33 | 0.00 | 96 | 990.0 |
| 20260901083705 | 70 | 86 | 0.0 | 0.0 | 0.00 | 0.33 | 0.00 | 96 | 990.0 |
| 20260901083205 | 70 | 86 | 0.0 | 0.0 | 0.00 | 0.33 | 0.00 | 96 | 990.1 |
| 20260901081703 | 69 | 86 | 0.0 | 0.0 | 0.00 | 0.33 | 0.00 | 96 | 990.0 |
| 20260901081203 | 69 | 86 | 0.0 | 0.0 | 0.00 | 0.33 | 0.00 | 96 | 989.9 |
| 20260901080205 | 69 | 86 | 0.0 | 0.0 | 0.00 | 0.33 | 0.00 | 95 | 989.9 |
| 20260901074703 | 69 | 86 | 0.0 | 0.0 | 0.00 | 0.33 | 0.00 | 95 | 989.9 |
| 20260901074204 | 69 | 86 | 0.0 | 0.0 | 0.00 | 0.33 | 0.00 | 95 | 989.9 |
| 20260901073704 | 69 | 86 | 0.0 | 0.0 | 0.00 | 0.33 | 0.00 | 95 | 989.9 |
| 20260901073205 | 69 | 86 | 0.0 | 0.0 | 0.00 | 0.33 | 0.00 | 95 | 989.9 |
| 20260901071704 | 69 | 86 | 0.0 | 0.0 | 0.00 | 0.33 | 0.00 | 95 | 990.0 |
| 20260901071203 | 69 | 86 | 0.0 | 0.0 | 0.00 | 0.33 | 0.00 | 95 | 989.9 |
| 20260901070703 | 69 | 86 | 0.0 | 1.0 | 0.00 | 0.33 | 0.00 | 95 | 989.9 |
| 20260901070203 | 69 | 86 | 0.0 | 1.0 | 0.00 | 0.33 | 0.00 | 95 | 989.8 |
| 20260901064705 | 69 | 48 | 0.0 | 0.0 | 0.00 | 0.33 | 0.00 | 94 | 989.9 |
| 20260901064204 | 69 | 48 | 0.0 | 0.0 | 0.00 | 0.33 | 0.00 | 94 | 990.0 |
| 20260901063703 | 69 | 48 | 0.0 | 0.0 | 0.00 | 0.33 | 0.00 | 94 | 990.1 |
| 20260901063204 | 69 | 48 | 0.0 | 0.0 | 0.00 | 0.33 | 0.00 | 94 | 990.1 |
| 20260901061204 | 70 | 48 | 0.0 | 0.0 | 0.00 | 0.33 | 0.00 | 94 | 990.0 |
| 20260901060704 | 70 | 48 | 0.0 | 0.0 | 0.00 | 0.33 | 0.00 | 94 | 990.0 |
| 20260901060204 | 70 | 48 | 0.0 | 0.0 | 0.00 | 0.33 | 0.00 | 94 | 990.0 |
| 20260901054204 | 71 | 48 | 0.0 | 0.0 | 0.15 | 0.33 | 0.00 | 93 | 990.1 |
| 20260901053203 | 71 | 48 | 0.0 | 0.0 | 0.15 | 0.33 | 0.00 | 93 | 990.1 |
| 20260901051704 | 72 | 48 | 0.0 | 0.0 | 0.15 | 0.33 | 0.00 | 93 | 989.9 |
| 20260901051204 | 72 | 48 | 0.0 | 1.0 | 0.15 | 0.33 | 0.00 | 93 | 989.9 |
| 20260901050704 | 72 | 48 | 1.0 | 2.0 | 0.15 | 0.33 | 0.00 | 93 | 990.0 |
| 20260901050204 | 72 | 253 | 1.0 | 2.0 | 0.15 | 0.33 | 0.00 | 93 | 989.9 |
| 20260901044704 | 72 | 230 | 0.0 | 2.0 | 0.00 | 0.17 | 0.15 | 93 | 989.9 |
| 20260901044204 | 73 | 242 | 0.0 | 2.0 | 0.00 | 0.17 | 0.15 | 93 | 990.0 |
| 20260901043703 | 73 | 240 | 0.0 | 2.0 | 0.00 | 0.17 | 0.15 | 93 | 990.0 |
| 20260901041704 | 73 | 271 | 1.0 | 2.0 | 0.00 | 0.17 | 0.15 | 93 | 989.9 |
| 20260901041204 | 73 | 249 | 0.0 | 2.0 | 0.00 | 0.17 | 0.15 | 93 | 990.0 |
| 20260901040704 | 73 | 228 | 0.0 | 2.0 | 0.00 | 0.17 | 0.15 | 93 | 990.0 |
| 20260901040203 | 73 | 241 | 1.0 | 2.0 | 0.00 | 0.17 | 0.15 | 93 | 990.0 |
| 20260901034704 | 73 | 135 | 0.0 | 2.0 | 0.00 | 0.17 | 0.15 | 93 | 990.0 |
| 20260901034205 | 73 | 91 | 1.0 | 2.0 | 0.00 | 0.17 | 0.15 | 93 | 990.0 |
| 20260901033704 | 73 | 213 | 0.0 | 2.0 | 0.00 | 0.17 | 0.15 | 92 | 990.0 |
| 20260901031705 | 73 | 157 | 0.0 | 2.0 | 0.00 | 0.17 | 0.15 | 92 | 990.1 |
| 20260901031204 | 74 | 162 | 0.0 | 2.0 | 0.00 | 0.17 | 0.15 | 92 | 990.2 |
| 20260901030204 | 74 | 131 | 0.0 | 1.0 | 0.00 | 0.17 | 0.15 | 91 | 990.1 |
| 20260901024703 | 75 | 181 | 0.0 | 1.0 | 0.00 | 0.17 | 0.15 | 91 | 990.1 |
| 20260901024203 | 75 | 181 | 0.0 | 2.0 | 0.00 | 0.17 | 0.15 | 91 | 990.1 |
| 20260901023704 | 75 | 242 | 0.0 | 2.0 | 0.00 | 0.17 | 0.15 | 91 | 990.1 |
| 20260901023204 | 75 | 164 | 0.0 | 2.0 | 0.00 | 0.17 | 0.15 | 91 | 990.2 |
| 20260901021704 | 76 | 230 | 0.0 | 2.0 | 0.00 | 0.17 | 0.15 | 90 | 990.1 |
| 20260901021205 | 76 | 268 | 0.0 | 2.0 | 0.00 | 0.17 | 0.15 | 90 | 990.1 |
| 20260901020704 | 76 | 264 | 0.0 | 2.0 | 0.00 | 0.17 | 0.15 | 90 | 990.2 |
| 20260901020204 | 76 | 265 | 1.0 | 2.0 | 0.00 | 0.17 | 0.15 | 90 | 990.2 |
| 20260901014704 | 76 | 249 | 1.0 | 2.0 | 0.00 | 0.17 | 0.15 | 89 | 990.0 |
| 20260901014203 | 76 | 266 | 1.0 | 2.0 | 0.00 | 0.17 | 0.15 | 89 | 989.9 |
| 20260901013204 | 76 | 264 | 0.0 | 2.0 | 0.00 | 0.17 | 0.15 | 89 | 989.9 |
| 20260901011703 | 75 | 115 | 0.0 | 2.0 | 0.00 | 0.17 | 0.15 | 90 | 989.5 |
| 20260901011204 | 75 | 273 | 0.0 | 2.0 | 0.00 | 0.17 | 0.15 | 90 | 989.4 |
| 20260901010703 | 75 | 168 | 0.0 | 1.0 | 0.00 | 0.17 | 0.15 | 90 | 989.3 |
| 20260901010203 | 74 | 201 | 0.0 | 1.0 | 0.00 | 0.17 | 0.15 | 89 | 989.1 |
| 20260901003705 | 75 | 234 | 0.0 | 2.0 | 0.00 | 0.17 | 0.15 | 88 | 989.1 |
| 20260901001704 | 75 | 245 | 0.0 | 2.0 | 0.00 | 0.17 | 0.15 | 88 | 988.8 |
| 20260901001204 | 75 | 111 | 1.0 | 2.0 | 0.00 | 0.17 | 0.15 | 88 | 988.7 |
| 20260901000703 | 75 | 268 | 0.0 | 1.0 | 0.00 | 0.17 | 0.15 | 88 | 988.9 |
| 20260901000205 | 75 | 228 | 0.0 | 1.0 | 0.00 | 0.17 | 0.15 | 88 | 988.9 |
| 20260831234704 | 74 | 242 | 0.0 | 2.0 | 0.00 | 0.17 | 0.15 | 89 | 988.6 |
| 20260831234204 | 74 | 259 | 1.0 | 3.0 | 0.00 | 0.17 | 0.15 | 89 | 988.5 |
| 20260831233703 | 74 | 278 | 2.0 | 3.0 | 0.00 | 0.17 | 0.15 | 90 | 988.5 |
| 20260831233204 | 74 | 261 | 1.0 | 3.0 | 0.00 | 0.17 | 0.15 | 90 | 988.6 |